#timestamp,LO_Frequency,Hit,Temp,Hum 
1480237215.5,286046951.7,N,0.0,0.0
1480237235.4,286046952.5,N,0.0,0.0
1480237255.2,286046952.1,N,0.0,0.0
1480237275.1,286046952.0,N,0.0,0.0
1480237276.0,286046952.0,N,0.0,0.0
1480237295.8,286046952.2,N,0.0,0.0
1480237315.6,286046952.3,N,0.0,0.0
1480237335.5,286046950.6,N,0.0,0.0
1480237355.3,286046950.3,N,0.0,0.0
1480237375.2,286046950.5,N,0.0,0.0
1480237395.9,286046952.5,N,0.0,0.0
1480237415.7,286046952.9,N,0.0,0.0
1480237435.6,286046950.6,N,0.0,0.0
1480237455.4,286046950.2,N,0.0,0.0
1480237475.2,286046951.0,N,0.0,0.0
1480237495.1,286046952.3,N,0.0,0.0
1480237496.0,286046952.3,N,0.0,0.0
1480237515.8,286046950.2,N,0.0,0.0
1480237535.7,286046948.5,N,0.0,0.0
1480237555.5,286046948.7,N,0.0,0.0
1480237575.3,286046947.3,N,0.0,0.0
1480237595.2,286046948.2,N,0.0,0.0
1480237615.0,286046947.4,N,0.0,0.0
1480237615.9,286046947.4,N,0.0,0.0
1480237635.8,286046948.2,N,0.0,0.0
1480237655.6,286046948.0,N,0.0,0.0
1480237675.4,286046945.6,N,0.0,0.0
1480237695.3,286046945.6,N,0.0,0.0
1480237715.1,286046945.6,N,0.0,0.0
1480237735.8,286046945.3,N,0.0,0.0
1480237755.7,286046948.0,N,0.0,0.0
1480237775.5,286046945.5,N,0.0,0.0
1480237795.4,286046946.6,N,0.0,0.0
1480237815.2,286046946.0,N,0.0,0.0
1480237835.0,286046944.1,N,0.0,0.0
1480237835.9,286046944.1,N,0.0,0.0
1480237855.8,286046943.8,N,0.0,0.0
1480237875.6,286046945.1,N,0.0,0.0
1480237895.5,286046942.8,N,0.0,0.0
1480237915.3,286046943.6,N,0.0,0.0
1480237935.1,286046941.2,N,0.0,0.0
1480237955.9,286046938.9,N,0.0,0.0
1480237975.7,286046941.6,N,0.0,0.0
1480237995.5,286046941.6,N,0.0,0.0
1480238015.4,286046939.0,N,0.0,0.0
1480238035.2,286046939.2,N,0.0,0.0
1480238055.1,286046941.4,N,0.0,0.0
1480238056.0,286046941.4,N,0.0,0.0
1480238075.8,286046940.6,N,0.0,0.0
1480238095.6,286046941.4,N,0.0,0.0
1480238115.5,286046939.5,N,0.0,0.0
1480238135.3,286046939.9,N,0.0,0.0
1480238155.2,286046937.6,N,0.0,0.0
1480238175.9,286046935.9,N,0.0,0.0
1480238195.7,286046936.7,N,0.0,0.0
1480238215.6,286046934.5,N,0.0,0.0
1480238235.4,286046935.4,N,0.0,0.0
1480238255.2,286046932.5,N,0.0,0.0
1480238275.1,286046933.4,N,0.0,0.0
1480238276.0,286046933.4,N,0.0,0.0
1480238295.8,286046934.0,N,0.0,0.0
1480238315.7,286046931.0,N,0.0,0.0
1480238335.5,286046934.0,N,0.0,0.0
1480238355.3,286046931.4,N,0.0,0.0
1480238375.2,286046932.1,N,0.0,0.0
1480238395.0,286046931.9,N,0.0,0.0
1480238395.9,286046931.9,N,0.0,0.0
1480238415.8,286046932.0,N,0.0,0.0
1480238435.6,286046930.1,N,0.0,0.0
1480238455.4,286046930.1,N,0.0,0.0
1480238475.3,286046930.2,N,0.0,0.0
1480238495.1,286046930.6,N,0.0,0.0
1480238515.9,286046928.2,N,0.0,0.0
1480238535.7,286046929.0,N,0.0,0.0
1480238555.5,286046929.2,N,0.0,0.0
1480238575.4,286046926.6,N,0.0,0.0
1480238595.2,286046926.4,N,0.0,0.0
1480238615.0,286046926.9,N,0.0,0.0
1480238615.9,286046926.9,N,0.0,0.0
1480238635.8,286046927.3,N,0.0,0.0
1480238655.6,286046924.5,N,0.0,0.0
1480238675.5,286046924.6,N,0.0,0.0
1480238695.3,286046924.6,N,0.0,0.0
1480238715.1,286046925.8,N,0.0,0.0
1480238735.9,286046925.5,N,0.0,0.0
1480238755.7,286046926.0,N,0.0,0.0
1480238775.5,286046923.3,N,0.0,0.0
1480238795.4,286046923.8,N,0.0,0.0
1480238815.2,286046923.2,N,0.0,0.0
1480238835.1,286046923.1,N,0.0,0.0
1480238836.0,286046923.1,N,0.0,0.0
1480238855.8,286046925.6,N,0.0,0.0
1480238875.6,286046925.5,N,0.0,0.0
1480238895.5,286046923.1,N,0.0,0.0
1480238915.3,286046923.9,N,0.0,0.0
1480238935.2,286046924.4,N,0.0,0.0
1480238955.9,286046921.9,N,0.0,0.0
1480238975.7,286046922.1,N,0.0,0.0
1480238995.6,286046922.6,N,0.0,0.0
1480239015.4,286046922.3,N,0.0,0.0
1480239035.2,286046922.8,N,0.0,0.0
1480239055.1,286046920.2,N,0.0,0.0
1480239056.0,286046920.2,N,0.0,0.0
1480239075.8,286046920.3,N,0.0,0.0
1480239095.7,286046919.9,N,0.0,0.0
1480239115.5,286046920.9,N,0.0,0.0
1480239135.3,286046921.2,N,0.0,0.0
1480239155.2,286046918.6,N,0.0,0.0
1480239175.0,286046918.6,N,0.0,0.0
1480239175.9,286046918.6,N,0.0,0.0
1480239195.8,286046918.3,N,0.0,0.0
1480239215.6,286046921.0,N,0.0,0.0
1480239235.4,286046919.9,N,0.0,0.0
1480239255.3,286046920.2,N,0.0,0.0
1480239275.1,286046921.0,N,0.0,0.0
1480239295.8,286046918.4,N,0.0,0.0
1480239315.7,286046918.5,N,0.0,0.0
1480239335.5,286046920.4,N,0.0,0.0
1480239355.4,286046918.2,N,0.0,0.0
1480239375.2,286046918.7,N,0.0,0.0
1480239395.0,286046918.9,N,0.0,0.0
1480239395.9,286046918.9,N,0.0,0.0
1480239415.8,286046918.4,N,0.0,0.0
1480239435.6,286046919.3,N,0.0,0.0
1480239455.5,286046916.6,N,0.0,0.0
1480239475.3,286046916.8,N,0.0,0.0
1480239495.1,286046917.0,N,0.0,0.0
1480239515.9,286046917.2,N,0.0,0.0
1480239535.7,286046917.1,N,0.0,0.0
1480239555.5,286046917.1,N,0.0,0.0
1480239575.4,286046917.1,N,0.0,0.0
1480239595.2,286046917.2,N,0.0,0.0
1480239615.1,286046917.2,N,0.0,0.0
1480239616.0,286046917.2,N,0.0,0.0
1480239635.8,286046917.4,N,0.0,0.0
1480239655.6,286046915.0,N,0.0,0.0
1480239675.5,286046915.5,N,0.0,0.0
1480239695.3,286046916.1,N,0.0,0.0
1480239715.1,286046913.3,N,0.0,0.0
1480239735.9,286046916.2,N,0.0,0.0
1480239755.7,286046915.9,N,0.0,0.0
1480239775.6,286046915.7,N,0.0,0.0
1480239795.4,286046916.0,N,0.0,0.0
1480239815.2,286046913.4,N,0.0,0.0
1480239835.1,286046916.4,N,0.0,0.0
1480239836.0,286046916.4,N,0.0,0.0
1480239855.8,286046913.6,N,0.0,0.0
1480239875.7,286046914.1,N,0.0,0.0
1480239895.5,286046914.2,N,0.0,0.0
1480239915.3,286046914.5,N,0.0,0.0
1480239935.2,286046914.7,N,0.0,0.0
1480239955.0,286046914.5,N,0.0,0.0
1480239955.9,286046914.5,N,0.0,0.0
1480239975.7,286046914.3,N,0.0,0.0
1480239995.6,286046914.2,N,0.0,0.0
1480240015.4,286046914.5,N,0.0,0.0
1480240035.3,286046914.0,N,0.0,0.0
1480240055.1,286046913.9,N,0.0,0.0
1480240056.0,286046913.9,N,0.0,0.0
1480240075.8,286046914.5,N,0.0,0.0
1480240095.7,286046914.8,N,0.0,0.0
1480240115.5,286046912.2,N,0.0,0.0
1480240135.4,286046914.4,N,0.0,0.0
1480240155.2,286046914.4,N,0.0,0.0
1480240175.0,286046914.8,N,0.0,0.0
1480240175.9,286046914.8,N,0.0,0.0
1480240195.8,286046914.0,N,0.0,0.0
1480240215.6,286046914.2,N,0.0,0.0
1480240235.4,286046914.4,N,0.0,0.0
1480240255.3,286046914.2,N,0.0,0.0
1480240275.1,286046914.3,N,0.0,0.0
1480240295.9,286046914.0,N,0.0,0.0
1480240315.7,286046913.5,N,0.0,0.0
1480240335.5,286046916.4,N,0.0,0.0
1480240355.4,286046913.4,N,0.0,0.0
1480240375.2,286046913.5,N,0.0,0.0
1480240395.0,286046913.4,N,0.0,0.0
1480240396.0,286046913.4,N,0.0,0.0
1480240415.8,286046916.3,N,0.0,0.0
1480240435.6,286046916.2,N,0.0,0.0
1480240455.5,286046916.0,N,0.0,0.0
1480240475.3,286046913.4,N,0.0,0.0
1480240495.1,286046916.3,N,0.0,0.0
1480240515.9,286046914.3,N,0.0,0.0
1480240535.7,286046914.8,N,0.0,0.0
1480240555.6,286046912.0,N,0.0,0.0
1480240575.4,286046914.4,N,0.0,0.0
1480240595.2,286046914.1,N,0.0,0.0
1480240615.1,286046914.1,N,0.0,0.0
1480240616.0,286046914.1,N,0.0,0.0
1480240635.8,286046914.2,N,0.0,0.0
1480240655.7,286046914.3,N,0.0,0.0
1480240675.5,286046914.4,N,0.0,0.0
1480240695.3,286046912.4,N,0.0,0.0
1480240715.2,286046912.7,N,0.0,0.0
1480240735.9,286046912.8,N,0.0,0.0
1480240755.7,286046910.1,N,0.0,0.0
1480240775.6,286046910.2,N,0.0,0.0
1480240795.4,286046910.4,N,0.0,0.0
